Tracking 31027 objects as of 19-Jul-2025
HD Live streaming from Space Station
objects crossing your sky now

STARLINK-3757

Track STARLINK-3757 now!
10-day predictions
STARLINK-3757 is classified as:


NORAD ID: 52539
Int'l Code: 2022-051G
Perigee: 545.9 km
Apogee: 547.9 km
Inclination: 53.2 °
Period: 95.4 minutes
Semi major axis: 6917 km
RCS: Unknown
Launch date: May 13, 2022
Source: United States (US)
Launch site: AIR FORCE WESTERN TEST RANGE (AFWTR)
Your satellite tracking list
TITAN 3C TRANSTAGE DEB
Track 1 satellite(s)




NASA's NSSDC Master Catalog

Two Line Element Set (TLE):
1 52539U 22051G   25199.14295368  .00000087  00000-0  23570-4 0  9994
2 52539  53.2175 102.0385 0001429  95.7840 264.3315 15.08838631176031
Source of the keplerian elements: AFSPC